Weather Roundup
Issued by NWS

Home | Current Version | Previous Version | Graphics & Text | Print | Product List | Glossary Off
Versions: 1 2 3 4 5 6 7 8 9 10 11 12 13 14 15 16 17 18 19 20 21 22 23 24 25 26 27 28 29 30 31 32 33 34 35 36 37 38 39 40 41 42 43 44 45 46 47 48 49 50

981
NZUS93 KARX 260859
HRRWXR

CURRENT HOURLY OBSERVATIONS ACROSS
MUCH OF THE UPPER MISSISSIPPI VALLEY
NATIONAL WEATHER SERVICE LA CROSSE WI
400 AM CDT TUE JUL 26 2016


...SOUTHEAST MINNESOTA...


CITY           SKY/WX    TMP DP  RH WIND       PRES   REMARKS
ROCHESTER      CLEAR     64  63  96 SW6       30.09S
ROCHESTER/MAYO FAIR      68  65  89 CALM      30.08F
WINONA         PTCLDY    64  63  94 CALM      30.06F
AUSTIN         CLEAR     63  61  94 CALM      30.09S
ALBERT LEA     CLEAR     68  66  94 CALM      30.09S
DODGE CENTER   CLEAR     63  61  94 CALM      30.09S
PRESTON        CLEAR     65  61  86 CALM      30.09S
OWATONNA       CLEAR     64  63  94 CALM      30.08S
FARIBAULT      CLEAR     64  64 100 CALM      30.07F
$$

...ELSEWHERE IN MINNESOTA...


CITY           SKY/WX    TMP DP  RH WIND       PRES   REMARKS
MINNEAPOLIS    PTCLDY    73  64  73 SW5       30.04S
INTNL FALLS    CLOUDY    63  61  93 CALM      29.97R
DULUTH         PTCLDY    70  65  84 W10       30.00F
RED WING       CLEAR     64  63  94 CALM      30.04F
REDWOOD FALLS  CLEAR     68  63  84 S8        30.03F
MANKATO        CLEAR     70  63  78 S5        30.06F
WORTHINGTON    CLEAR     70  64  81 SW8       30.09F
FAIRMONT       CLEAR     66  61  82 S7        30.07S
$$

...SOUTHWEST WISCONSIN...


CITY           SKY/WX    TMP DP  RH WIND       PRES   REMARKS
LA CROSSE      PTCLDY    67  65  93 SE5       30.06S
PRAIRIE DU CHI CLEAR     64  63  94 CALM      30.06S
BOSCOBEL       FOG       65  65 100 CALM      30.07R VSB 1/4
LONE ROCK      FOG       61  60  97 CALM      30.07S VSB 1/4
PLATTEVILLE    CLEAR     65  65  99 CALM      30.08R
FORT MC COY    PTCLDY    57  57 100 CALM      30.08R
CAMP DOUGLAS   CLEAR     57  57 100 CALM      30.07R FOG
MAUSTON-NEW LI SUNNY     60  60 100 CALM      30.06R FOG
VIROQUA        FAIR      63  63 100 CALM      30.08S
WIS DELLS      NOT AVBL
$$

...ELSEWHERE IN WISCONSIN...


CITY           SKY/WX    TMP DP  RH WIND       PRES   REMARKS
MILWAUKEE      CLEAR     70  63  78 CALM      30.04R
MADISON        PTCLDY    64  63  96 CALM      30.06R
GREEN BAY      PTCLDY    63  63 100 W5        30.03R
EAU CLAIRE     CLEAR     66  65  96 CALM      30.05S
BLACK RVR FLS  FOG       56  56 100 CALM      30.06S VSB 1/2
MEDFORD        CLEAR     57  57 100 CALM      30.08R FOG
WAUSAU         CLEAR     63  61  93 CALM      30.06R
WIS RAPIDS     FOG       62  59  90 CALM      30.08S VSB 3/4
MARSHFIELD     CLEAR     63  59  87 CALM      30.07S
RICE LAKE      FOG       62  60  96 CALM      30.06S VSB 1/4
$$

...NORTHEAST IOWA...


CITY           SKY/WX    TMP DP  RH WIND       PRES   REMARKS
WATERLOO       CLEAR     64  63  96 CALM      30.07S
DUBUQUE        CLEAR     64  61  90 CALM      30.08S
DECORAH        CLEAR     64  64 100 CALM      30.08S
MASON CITY     CLEAR     63  62  97 SW3       30.11R
CHARLES CITY   FOG       63  63 100 CALM      30.09S VSB 1/4
OELWEIN        CLEAR     64  63  94 N3        30.09S
$$

...ELSEWHERE IN IOWA...


CITY           SKY/WX    TMP DP  RH WIND       PRES   REMARKS
DES MOINES     CLEAR     72  66  81 CALM      30.07S
IOWA CITY      CLEAR     66  64  93 CALM      30.07S
FORT DODGE     CLEAR     64  63  94 CALM      30.10S
MARSHALLTOWN   CLEAR     63  63 100 CALM      30.07F
CEDAR RAPIDS   CLEAR     64  64 100 CALM      30.06S
$$

...NORTHERN ILLINOIS...


CITY           SKY/WX    TMP DP  RH WIND       PRES   REMARKS
CHICAGO-OHARE  PTCLDY    70  63  78 CALM      30.03S
CHICAGO-MIDWAY PTCLDY    76  64  66 CALM      30.03R
MOLINE         CLEAR     66  63  90 CALM      30.05R
ROCKFORD       CLEAR     67  65  93 CALM      30.07R
PEORIA         CLEAR     70  68  93 CALM      30.04R
$$

NOTE: "FAIR" INDICATES FEW OR NO CLOUDS BELOW 12,000 FEET WITH NO
SIGNIFICANT WEATHER AND/OR OBSTRUCTIONS TO VISIBILITY. WIND
SPEEDS ARE IN MILES-PER-HOUR.




USA.gov is the U.S. government's official web portal to all federal, state and local government web resources and services.